QPF
0.02 0.02 0.02 0.02 0.01 0.02 0.02 0.02 0.03 0.02 0.02 0.01 0.02 0.02 0.02 0.02 0.02 0.01 0.01 0.02 0.04 0.03 0.03 0.03 0.04 0.02 0.01 0.01 0.00 0.00 0.00 0.00 0.00 0.00 0.01 0.01 0.01 0.01 0.01 0.01 0.01 0.01 0.01
0.02 0.02 0.01 0.01 0.01 0.01 0.01 0.01 0.02 0.02 0.02 0.02 0.02 0.04 0.03 0.02 0.02 0.01 0.01 0.02 0.02 0.02 0.03 0.03 0.02 0.02 0.02 0.02 0.02 0.01 0.00 0.00 0.00 0.00 0.01 0.01 0.01 0.01 0.01 0.01 0.01 0.01 0.01
0.03 0.03 0.02 0.01 0.01 0.01 0.01 0.01 0.01 0.01 0.02 0.03 0.04 0.04 0.04 0.03 0.03 0.02 0.02 0.02 0.03 0.02 0.01 0.01 0.01 0.01 0.02 0.02 0.03 0.02 0.01 0.00 0.00 0.00 0.01 0.01 0.01 0.01 0.00 0.00 0.00 0.01 0.01
0.03 0.03 0.02 0.01 0.01 0.01 0.01 0.01 0.01 0.01 0.02 0.03 0.02 0.02 0.03 0.03 0.04 0.04 0.03 0.02 0.02 0.02 0.02 0.02 0.02 0.02 0.01 0.01 0.01 0.01 0.01 0.01 0.00 0.00 0.00 0.01 0.01 0.01 0.01 0.01 0.00 0.00 0.01
0.04 0.03 0.01 0.01 0.01 0.01 0.01 0.01 0.01 0.02 0.02 0.03 0.02 0.02 0.03 0.03 0.04 0.04 0.03 0.02 0.02 0.02 0.02 0.01 0.01 0.01 0.01 0.01 0.01 0.01 0.01 0.01 0.00 0.00 0.00 0.01 0.01 0.02 0.02 0.01 0.01 0.01 0.01
0.04 0.03 0.01 0.01 0.01 0.01 0.01 0.01 0.01 0.01 0.02 0.02 0.03 0.03 0.03 0.02 0.02 0.02 0.02 0.02 0.02 0.01 0.01 0.00 0.00 0.00 0.00 0.00 0.00 0.01 0.01 0.01 0.01 0.00 0.00 0.00 0.01 0.01 0.01 0.01 0.01 0.01 0.00
0.03 0.03 0.01 0.01 0.01 0.01 0.01 0.01 0.01 0.01 0.01 0.02 0.03 0.05 0.04 0.02 0.02 0.03 0.03 0.02 0.02 0.02 0.02 0.01 0.00 0.00 0.00 0.00 0.00 0.00 0.01 0.01 0.01 0.01 0.01 0.01 0.01 0.01 0.01 0.01 0.01 0.01 0.01
0.02 0.02 0.02 0.01 0.01 0.01 0.01 0.02 0.02 0.01 0.01 0.01 0.02 0.03 0.03 0.03 0.02 0.02 0.02 0.03 0.03 0.02 0.02 0.01 0.00 0.00 0.00 0.00 0.00 0.00 0.00 0.00 0.01 0.01 0.01 0.01 0.01 0.01 0.01 0.01 0.01 0.01 0.01
0.01 0.01 0.01 0.03 0.03 0.02 0.02 0.02 0.02 0.01 0.01 0.01 0.01 0.01 0.01 0.02 0.02 0.02 0.02 0.02 0.03 0.02 0.01 0.01 0.01 0.00 0.00 0.00 0.00 0.00 0.00 0.00 0.00 0.01 0.01 0.01 0.01 0.01 0.01 0.01 0.01 0.01 0.01
0.01 0.01 0.01 0.02 0.03 0.03 0.03 0.02 0.02 0.02 0.01 0.01 0.01 0.00 0.00 0.01 0.01 0.02 0.02 0.02 0.03 0.02 0.02 0.01 0.01 0.00 0.00 0.00 0.00 0.00 0.00 0.00 0.00 0.00 0.01 0.01 0.01 0.01 0.01 0.01 0.01 0.01 0.01
0.01 0.02 0.02 0.03 0.03 0.03 0.02 0.02 0.02 0.02 0.01 0.01 0.01 0.00 0.00 0.01 0.02 0.03 0.04 0.03 0.03 0.02 0.02 0.02 0.01 0.01 0.00 0.00 0.00 0.00 0.00 0.00 0.00 0.00 0.00 0.01 0.01 0.02 0.01 0.01 0.01 0.01 0.01
0.01 0.01 0.01 0.01 0.02 0.03 0.03 0.03 0.04 0.03 0.03 0.02 0.02 0.01 0.01 0.02 0.03 0.03 0.03 0.03 0.02 0.02 0.02 0.02 0.02 0.01 0.00 0.00 0.00 0.00 0.00 0.00 0.00 0.00 0.00 0.00 0.00 0.01 0.02 0.01 0.01 0.01 0.01
0.01 0.01 0.01 0.01 0.01 0.02 0.03 0.03 0.04 0.04 0.04 0.03 0.03 0.02 0.02 0.02 0.03 0.03 0.02 0.02 0.03 0.02 0.03 0.04 0.04 0.02 0.01 0.01 0.01 0.00 0.00 0.00 0.00 0.00 0.00 0.00 0.00 0.01 0.01 0.01 0.01 0.01 0.01
0.01 0.01 0.01 0.01 0.01 0.01 0.02 0.02 0.03 0.04 0.05 0.04 0.04 0.02 0.02 0.02 0.02 0.02 0.02 0.02 0.02 0.03 0.03 0.04 0.05 0.05 0.04 0.02 0.01 0.00 0.00 0.00 0.00 0.00 0.00 0.00 0.00 0.00 0.01 0.01 0.01 0.01 0.02
0.01 0.01 0.01 0.01 0.01 0.01 0.01 0.02 0.02 0.03 0.04 0.04 0.05 0.04 0.03 0.02 0.02 0.02 0.02 0.02 0.02 0.02 0.03 0.04 0.04 0.05 0.05 0.04 0.02 0.01 0.01 0.01 0.01 0.00 0.01 0.00 0.00 0.00 0.01 0.01 0.01 0.01 0.02
0.02 0.01 0.01 0.01 0.01 0.01 0.01 0.02 0.02 0.03 0.03 0.04 0.04 0.04 0.04 0.03 0.03 0.03 0.03 0.02 0.02 0.02 0.03 0.04 0.04 0.04 0.04 0.04 0.03 0.02 0.01 0.01 0.01 0.01 0.01 0.01 0.01 0.00 0.00 0.01 0.01 0.01 0.02
0.01 0.01 0.01 0.01 0.01 0.01 0.01 0.02 0.02 0.02 0.02 0.02 0.03 0.03 0.03 0.03 0.04 0.04 0.04 0.03 0.03 0.03 0.03 0.03 0.03 0.04 0.05 0.04 0.04 0.03 0.02 0.01 0.01 0.01 0.01 0.01 0.01 0.01 0.01 0.01 0.01 0.01 0.01
0.01 0.01 0.01 0.01 0.01 0.01 0.01 0.02 0.01 0.01 0.01 0.01 0.01 0.02 0.02 0.02 0.03 0.04 0.04 0.03 0.03 0.03 0.02 0.02 0.02 0.03 0.04 0.03 0.03 0.03 0.02 0.01 0.00 0.00 0.01 0.01 0.01 0.01 0.01 0.01 0.01 0.01 0.01
0.02 0.02 0.02 0.01 0.01 0.01 0.01 0.01 0.01 0.01 0.01 0.01 0.01 0.01 0.02 0.02 0.02 0.02 0.03 0.03 0.03 0.04 0.04 0.03 0.02 0.02 0.02 0.02 0.03 0.03 0.03 0.02 0.01 0.01 0.01 0.01 0.01 0.01 0.01 0.02 0.01 0.01 0.02
0.02 0.02 0.02 0.03 0.03 0.02 0.02 0.02 0.02 0.02 0.01 0.01 0.02 0.02 0.02 0.02 0.03 0.04 0.04 0.03 0.03 0.04 0.03 0.03 0.02 0.02 0.02 0.03 0.03 0.03 0.02 0.03 0.03 0.02 0.02 0.02 0.02 0.02 0.02 0.02 0.02 0.02 0.02
0.02 0.02 0.02 0.02 0.03 0.02 0.02 0.02 0.02 0.02 0.02 0.02 0.02 0.02 0.02 0.02 0.02 0.03 0.04 0.04 0.04 0.04 0.03 0.03 0.03 0.03 0.03 0.03 0.04 0.03 0.03 0.03 0.03 0.03 0.02 0.02 0.02 0.02 0.02 0.02 0.02 0.02 0.02
0.02 0.01 0.02 0.02 0.02 0.02 0.02 0.01 0.01 0.02 0.02 0.02 0.02 0.02 0.02 0.02 0.02 0.02 0.02 0.02 0.03 0.03 0.03 0.03 0.03 0.03 0.03 0.04 0.04 0.04 0.04 0.04 0.04 0.03 0.03 0.03 0.02 0.03 0.03 0.03 0.04 0.04 0.03
0.02 0.02 0.02 0.02 0.02 0.02 0.02 0.02 0.01 0.01 0.01 0.02 0.01 0.01 0.01 0.01 0.01 0.01 0.01 0.02 0.03 0.03 0.04 0.03 0.03 0.03 0.03 0.04 0.05 0.06 0.06 0.07 0.06 0.05 0.04 0.03 0.03 0.04 0.04 0.05 0.05 0.04 0.04
0.02 0.03 0.02 0.02 0.02 0.02 0.02 0.02 0.02 0.01 0.01 0.01 0.01 0.01 0.01 0.01 0.01 0.02 0.02 0.02 0.03 0.03 0.03 0.03 0.03 0.04 0.04 0.04 0.05 0.07 0.08 0.08 0.09 0.08 0.07 0.07 0.06 0.05 0.05 0.05 0.05 0.05 0.04
0.04 0.03 0.03 0.02 0.02 0.03 0.03 0.03 0.03 0.03 0.02 0.02 0.02 0.02 0.03 0.03 0.03 0.03 0.03 0.02 0.02 0.02 0.02 0.02 0.02 0.03 0.03 0.04 0.04 0.05 0.07 0.08 0.10 0.10 0.09 0.08 0.07 0.06 0.06 0.05 0.05 0.05 0.04
0.04 0.03 0.02 0.03 0.03 0.04 0.04 0.05 0.04 0.04 0.04 0.04 0.03 0.02 0.02 0.03 0.03 0.02 0.02 0.02 0.02 0.02 0.02 0.02 0.02 0.03 0.03 0.03 0.04 0.04 0.04 0.06 0.07 0.07 0.07 0.06 0.05 0.05 0.05 0.04 0.04 0.03 0.03
MSLP
1019.56 1019.01 1018.57 1018.36 1018.39 1018.62 1018.95 1019.25 1019.44 1019.44 1019.26 1018.95 1018.61 1018.30 1018.11 1018.05 1018.12 1018.25 1018.41 1018.53 1018.60 1018.61 1018.60 1018.59 1018.61 1018.67 1018.76 1018.84 1018.89 1018.89 1018.82 1018.70 1018.55 1018.42 1018.33 1018.31 1018.34 1018.43 1018.53 1018.62 1018.69 1018.72 1018.71
1020.49 1019.77 1019.18 1018.85 1018.79 1018.95 1019.25 1019.53 1019.71 1019.72 1019.55 1019.25 1018.91 1018.63 1018.45 1018.40 1018.46 1018.58 1018.71 1018.79 1018.82 1018.80 1018.76 1018.75 1018.79 1018.89 1019.03 1019.16 1019.26 1019.27 1019.21 1019.06 1018.88 1018.71 1018.58 1018.53 1018.55 1018.63 1018.74 1018.85 1018.92 1018.94 1018.92
1021.63 1020.74 1019.98 1019.49 1019.30 1019.36 1019.57 1019.81 1019.96 1019.95 1019.79 1019.51 1019.20 1018.93 1018.77 1018.73 1018.77 1018.86 1018.94 1018.97 1018.94 1018.87 1018.81 1018.79 1018.85 1018.99 1019.19 1019.38 1019.52 1019.58 1019.53 1019.38 1019.18 1018.98 1018.82 1018.73 1018.74 1018.81 1018.91 1019.01 1019.09 1019.11 1019.08
1022.88 1021.84 1020.92 1020.28 1019.95 1019.88 1019.98 1020.14 1020.23 1020.19 1020.02 1019.76 1019.47 1019.23 1019.08 1019.03 1019.06 1019.10 1019.12 1019.09 1018.99 1018.87 1018.78 1018.75 1018.82 1019.00 1019.23 1019.48 1019.67 1019.76 1019.74 1019.60 1019.40 1019.18 1019.00 1018.89 1018.87 1018.93 1019.02 1019.12 1019.19 1019.21 1019.18
1024.11 1022.97 1021.94 1021.18 1020.73 1020.54 1020.53 1020.59 1020.60 1020.52 1020.32 1020.05 1019.77 1019.55 1019.41 1019.35 1019.35 1019.35 1019.31 1019.21 1019.06 1018.89 1018.75 1018.70 1018.77 1018.95 1019.21 1019.48 1019.70 1019.82 1019.81 1019.69 1019.49 1019.26 1019.07 1018.96 1018.93 1018.97 1019.06 1019.15 1019.23 1019.25 1019.23
1025.24 1024.05 1022.98 1022.16 1021.63 1021.35 1021.25 1021.21 1021.14 1020.99 1020.75 1020.46 1020.17 1019.94 1019.80 1019.73 1019.70 1019.66 1019.58 1019.43 1019.22 1019.00 1018.83 1018.74 1018.78 1018.94 1019.17 1019.43 1019.64 1019.75 1019.75 1019.63 1019.44 1019.22 1019.03 1018.92 1018.88 1018.92 1019.00 1019.10 1019.18 1019.22 1019.22
1026.18 1025.02 1023.97 1023.17 1022.63 1022.32 1022.15 1022.04 1021.89 1021.67 1021.37 1021.04 1020.73 1020.48 1020.32 1020.23 1020.18 1020.12 1020.00 1019.81 1019.56 1019.30 1019.08 1018.95 1018.93 1019.02 1019.20 1019.39 1019.55 1019.62 1019.59 1019.46 1019.26 1019.05 1018.88 1018.76 1018.73 1018.76 1018.84 1018.94 1019.03 1019.09 1019.12
1026.92 1025.85 1024.90 1024.18 1023.70 1023.40 1023.22 1023.06 1022.85 1022.57 1022.22 1021.84 1021.49 1021.21 1021.02 1020.91 1020.83 1020.74 1020.60 1020.39 1020.12 1019.83 1019.56 1019.37 1019.27 1019.27 1019.34 1019.43 1019.49 1019.48 1019.39 1019.23 1019.02 1018.81 1018.64 1018.53 1018.49 1018.52 1018.59 1018.68 1018.76 1018.84 1018.89
1027.49 1026.55 1025.76 1025.18 1024.80 1024.56 1024.40 1024.22 1023.98 1023.65 1023.25 1022.83 1022.44 1022.13 1021.91 1021.77 1021.67 1021.56 1021.40 1021.17 1020.89 1020.57 1020.26 1020.00 1019.81 1019.69 1019.63 1019.59 1019.52 1019.40 1019.23 1019.01 1018.78 1018.55 1018.38 1018.26 1018.21 1018.21 1018.25 1018.32 1018.39 1018.46 1018.53
1027.96 1027.19 1026.57 1026.14 1025.89 1025.73 1025.61 1025.44 1025.18 1024.83 1024.40 1023.95 1023.53 1023.19 1022.95 1022.77 1022.65 1022.52 1022.34 1022.10 1021.80 1021.46 1021.11 1020.79 1020.51 1020.28 1020.08 1019.89 1019.68 1019.44 1019.17 1018.88 1018.60 1018.35 1018.16 1018.02 1017.93 1017.89 1017.89 1017.90 1017.92 1017.96 1018.03
1028.41 1027.81 1027.35 1027.07 1026.92 1026.84 1026.76 1026.60 1026.35 1025.99 1025.55 1025.10 1024.68 1024.33 1024.06 1023.86 1023.70 1023.54 1023.34 1023.09 1022.77 1022.41 1022.03 1021.66 1021.30 1020.97 1020.65 1020.32 1019.98 1019.62 1019.25 1018.88 1018.54 1018.25 1018.02 1017.84 1017.71 1017.61 1017.53 1017.46 1017.41 1017.39 1017.41
1028.92 1028.45 1028.13 1027.95 1027.87 1027.83 1027.77 1027.62 1027.37 1027.02 1026.60 1026.17 1025.77 1025.43 1025.16 1024.94 1024.76 1024.56 1024.33 1024.05 1023.71 1023.33 1022.93 1022.52 1022.11 1021.70 1021.28 1020.84 1020.39 1019.92 1019.46 1019.01 1018.62 1018.28 1018.00 1017.76 1017.57 1017.39 1017.22 1017.05 1016.91 1016.80 1016.75
1029.50 1029.14 1028.90 1028.77 1028.71 1028.66 1028.57 1028.41 1028.17 1027.84 1027.47 1027.09 1026.73 1026.42 1026.17 1025.94 1025.73 1025.50 1025.23 1024.91 1024.55 1024.16 1023.74 1023.31 1022.87 1022.41 1021.92 1021.41 1020.86 1020.31 1019.77 1019.25 1018.80 1018.40 1018.06 1017.77 1017.51 1017.25 1016.99 1016.73 1016.48 1016.27 1016.12
1030.16 1029.86 1029.65 1029.51 1029.41 1029.31 1029.17 1028.98 1028.72 1028.42 1028.11 1027.79 1027.51 1027.26 1027.03 1026.81 1026.58 1026.31 1026.00 1025.65 1025.26 1024.85 1024.42 1023.98 1023.53 1023.05 1022.52 1021.96 1021.36 1020.74 1020.13 1019.55 1019.03 1018.57 1018.19 1017.84 1017.52 1017.20 1016.86 1016.51 1016.16 1015.84 1015.59
1030.86 1030.59 1030.37 1030.18 1030.00 1029.80 1029.58 1029.34 1029.07 1028.80 1028.54 1028.31 1028.11 1027.93 1027.75 1027.54 1027.30 1027.00 1026.64 1026.24 1025.82 1025.39 1024.96 1024.53 1024.07 1023.59 1023.05 1022.46 1021.81 1021.14 1020.47 1019.83 1019.25 1018.75 1018.31 1017.92 1017.56 1017.19 1016.81 1016.40 1015.98 1015.57 1015.22
1031.53 1031.28 1031.02 1030.76 1030.48 1030.19 1029.88 1029.58 1029.29 1029.05 1028.85 1028.70 1028.58 1028.47 1028.33 1028.14 1027.89 1027.55 1027.16 1026.72 1026.27 1025.83 1025.39 1024.96 1024.52 1024.04 1023.49 1022.88 1022.20 1021.48 1020.75 1020.05 1019.41 1018.86 1018.38 1017.97 1017.59 1017.22 1016.82 1016.40 1015.94 1015.48 1015.04
1032.12 1031.88 1031.60 1031.28 1030.92 1030.54 1030.16 1029.81 1029.51 1029.28 1029.13 1029.05 1028.99 1028.93 1028.83 1028.65 1028.38 1028.02 1027.59 1027.12 1026.65 1026.18 1025.75 1025.32 1024.89 1024.41 1023.87 1023.23 1022.52 1021.75 1020.96 1020.20 1019.50 1018.89 1018.38 1017.96 1017.59 1017.23 1016.86 1016.46 1016.01 1015.53 1015.03
1032.60 1032.38 1032.10 1031.75 1031.34 1030.92 1030.49 1030.12 1029.81 1029.60 1029.48 1029.43 1029.41 1029.38 1029.28 1029.10 1028.81 1028.42 1027.96 1027.47 1026.97 1026.51 1026.07 1025.66 1025.23 1024.76 1024.20 1023.55 1022.79 1021.97 1021.12 1020.29 1019.53 1018.87 1018.33 1017.90 1017.54 1017.23 1016.91 1016.56 1016.14 1015.67 1015.15
1032.95 1032.77 1032.52 1032.18 1031.79 1031.36 1030.94 1030.56 1030.26 1030.06 1029.94 1029.90 1029.87 1029.82 1029.71 1029.49 1029.17 1028.76 1028.28 1027.77 1027.28 1026.81 1026.39 1025.98 1025.56 1025.09 1024.53 1023.85 1023.06 1022.19 1021.28 1020.39 1019.56 1018.85 1018.28 1017.83 1017.49 1017.21 1016.94 1016.65 1016.28 1015.84 1015.31
1033.18 1033.06 1032.87 1032.59 1032.25 1031.87 1031.49 1031.14 1030.85 1030.65 1030.52 1030.43 1030.36 1030.26 1030.09 1029.83 1029.47 1029.03 1028.54 1028.04 1027.55 1027.11 1026.70 1026.31 1025.91 1025.44 1024.87 1024.18 1023.37 1022.46 1021.50 1020.55 1019.67 1018.90 1018.28 1017.81 1017.46 1017.20 1016.97 1016.71 1016.39 1015.97 1015.45
1033.31 1033.26 1033.14 1032.96 1032.70 1032.40 1032.09 1031.79 1031.52 1031.31 1031.14 1031.00 1030.85 1030.67 1030.42 1030.09 1029.69 1029.23 1028.74 1028.25 1027.80 1027.39 1027.01 1026.65 1026.26 1025.81 1025.25 1024.55 1023.73 1022.81 1021.82 1020.83 1019.90 1019.09 1018.41 1017.89 1017.51 1017.22 1016.99 1016.74 1016.43 1016.03 1015.52
1033.35 1033.37 1033.34 1033.24 1033.09 1032.89 1032.65 1032.41 1032.17 1031.94 1031.72 1031.50 1031.26 1030.98 1030.65 1030.26 1029.82 1029.35 1028.87 1028.41 1028.00 1027.63 1027.30 1026.97 1026.61 1026.18 1025.64 1024.96 1024.16 1023.24 1022.26 1021.25 1020.29 1019.43 1018.70 1018.11 1017.65 1017.30 1017.01 1016.73 1016.41 1016.00 1015.49
1033.32 1033.39 1033.43 1033.41 1033.35 1033.24 1033.08 1032.89 1032.67 1032.43 1032.17 1031.88 1031.55 1031.18 1030.77 1030.32 1029.85 1029.38 1028.93 1028.52 1028.15 1027.83 1027.54 1027.25 1026.92 1026.51 1026.00 1025.37 1024.60 1023.72 1022.77 1021.78 1020.81 1019.92 1019.12 1018.45 1017.90 1017.45 1017.06 1016.69 1016.31 1015.86 1015.34
1033.23 1033.32 1033.39 1033.43 1033.42 1033.38 1033.28 1033.14 1032.95 1032.71 1032.41 1032.07 1031.67 1031.24 1030.77 1030.30 1029.82 1029.36 1028.95 1028.58 1028.26 1027.97 1027.71 1027.45 1027.14 1026.76 1026.29 1025.70 1024.99 1024.18 1023.28 1022.34 1021.39 1020.48 1019.63 1018.87 1018.20 1017.62 1017.11 1016.63 1016.15 1015.65 1015.10
1033.05 1033.14 1033.22 1033.27 1033.29 1033.28 1033.23 1033.13 1032.97 1032.74 1032.45 1032.08 1031.65 1031.19 1030.71 1030.22 1029.76 1029.33 1028.95 1028.61 1028.32 1028.06 1027.81 1027.55 1027.25 1026.88 1026.43 1025.89 1025.25 1024.51 1023.70 1022.82 1021.91 1021.01 1020.12 1019.28 1018.51 1017.79 1017.14 1016.53 1015.95 1015.38 1014.81
1032.78 1032.85 1032.90 1032.93 1032.96 1032.97 1032.95 1032.89 1032.77 1032.58 1032.30 1031.95 1031.54 1031.09 1030.61 1030.15 1029.71 1029.31 1028.96 1028.65 1028.37 1028.10 1027.83 1027.54 1027.21 1026.84 1026.40 1025.89 1025.31 1024.65 1023.92 1023.13 1022.28 1021.40 1020.50 1019.60 1018.73 1017.90 1017.12 1016.40 1015.72 1015.08 1014.48
Thickness
5698 5696 5694 5693 5693 5692 5691 5691 5691 5690 5690 5690 5690 5689 5689 5688 5688 5688 5687 5687 5687 5687 5687 5686 5686 5685 5685 5685 5684 5684 5684 5684 5684 5685 5685 5685 5684 5684 5684 5684 5684 5683 5683
5698 5694 5692 5691 5691 5690 5689 5688 5688 5688 5688 5687 5687 5687 5686 5686 5685 5685 5684 5684 5684 5684 5683 5683 5682 5682 5681 5681 5681 5681 5681 5681 5681 5681 5682 5682 5682 5681 5681 5680 5680 5680 5680
5696 5692 5690 5689 5688 5687 5687 5686 5685 5685 5685 5685 5684 5684 5683 5683 5683 5682 5681 5681 5681 5681 5680 5679 5679 5678 5678 5677 5677 5677 5677 5678 5678 5679 5680 5679 5679 5678 5678 5677 5677 5677 5677
5692 5689 5687 5686 5685 5684 5684 5683 5683 5682 5682 5681 5681 5681 5681 5680 5680 5679 5678 5678 5678 5677 5677 5676 5675 5674 5674 5674 5674 5674 5674 5675 5676 5677 5677 5677 5677 5676 5675 5675 5674 5674 5674
5688 5686 5683 5682 5682 5681 5680 5680 5679 5679 5678 5678 5677 5677 5677 5677 5676 5676 5675 5675 5674 5674 5674 5673 5672 5671 5671 5670 5670 5670 5671 5671 5672 5674 5674 5674 5673 5672 5672 5671 5671 5671 5670
5684 5681 5679 5678 5678 5677 5676 5676 5676 5675 5675 5674 5674 5673 5673 5673 5672 5672 5671 5671 5670 5670 5670 5669 5668 5668 5667 5667 5667 5667 5667 5668 5669 5671 5671 5671 5670 5669 5668 5668 5667 5667 5667
5679 5676 5674 5673 5673 5672 5672 5672 5671 5671 5670 5670 5669 5669 5669 5668 5668 5667 5667 5667 5667 5666 5666 5665 5665 5664 5664 5664 5664 5664 5664 5665 5666 5667 5667 5667 5666 5666 5665 5664 5664 5664 5664
5673 5671 5669 5668 5668 5667 5667 5667 5666 5666 5666 5665 5665 5664 5664 5664 5663 5663 5663 5663 5662 5662 5662 5661 5661 5661 5660 5660 5660 5660 5661 5661 5662 5663 5664 5664 5663 5662 5662 5661 5661 5660 5660
5668 5665 5663 5662 5662 5662 5662 5661 5661 5661 5661 5660 5660 5660 5659 5659 5659 5659 5658 5658 5658 5658 5658 5657 5657 5657 5657 5657 5657 5657 5657 5658 5658 5659 5660 5660 5659 5658 5658 5658 5657 5657 5657
5661 5660 5659 5658 5657 5656 5656 5656 5656 5656 5655 5655 5655 5655 5655 5655 5654 5654 5654 5654 5653 5654 5654 5654 5653 5653 5653 5653 5653 5653 5654 5654 5655 5655 5655 5655 5655 5654 5654 5654 5653 5653 5653
5653 5653 5653 5652 5652 5652 5651 5650 5651 5650 5650 5650 5650 5650 5650 5650 5650 5649 5649 5649 5648 5648 5649 5649 5649 5649 5649 5649 5650 5650 5650 5650 5651 5651 5651 5651 5650 5650 5650 5649 5649 5649 5649
5643 5645 5646 5646 5646 5646 5646 5645 5645 5645 5644 5644 5644 5644 5644 5644 5645 5645 5644 5644 5644 5643 5643 5644 5644 5645 5645 5645 5645 5645 5645 5646 5646 5646 5647 5646 5646 5645 5645 5645 5644 5644 5644
5636 5637 5639 5639 5640 5640 5640 5640 5639 5639 5639 5638 5638 5638 5638 5639 5639 5639 5639 5638 5638 5638 5638 5639 5639 5639 5640 5640 5640 5640 5641 5641 5641 5642 5642 5641 5641 5640 5640 5640 5639 5639 5639
5629 5630 5631 5632 5633 5633 5633 5633 5633 5632 5632 5632 5632 5632 5632 5633 5632 5632 5632 5633 5632 5633 5633 5633 5634 5634 5634 5634 5635 5635 5635 5635 5636 5636 5636 5636 5635 5635 5634 5634 5634 5633 5633
5621 5622 5624 5625 5626 5626 5626 5626 5626 5625 5625 5625 5624 5624 5625 5625 5625 5625 5625 5625 5625 5626 5626 5626 5627 5628 5628 5628 5628 5629 5629 5629 5630 5630 5630 5629 5629 5628 5627 5627 5627 5627 5627
5614 5614 5616 5618 5618 5619 5619 5618 5618 5618 5617 5617 5617 5616 5617 5617 5617 5618 5617 5617 5617 5617 5618 5619 5619 5620 5621 5621 5621 5622 5623 5623 5623 5623 5623 5622 5622 5621 5619 5619 5619 5619 5619
5605 5607 5609 5610 5610 5611 5610 5610 5610 5610 5610 5609 5609 5608 5608 5608 5609 5609 5609 5609 5609 5609 5609 5610 5610 5611 5612 5613 5613 5614 5615 5615 5615 5615 5614 5614 5613 5612 5611 5610 5610 5609 5609
5598 5599 5600 5601 5602 5602 5602 5602 5602 5602 5602 5601 5601 5600 5600 5600 5600 5600 5600 5600 5600 5600 5600 5601 5600 5601 5602 5602 5604 5605 5606 5606 5606 5605 5604 5603 5603 5602 5601 5600 5599 5599 5598
5590 5590 5592 5593 5593 5593 5594 5594 5593 5593 5593 5592 5591 5591 5591 5591 5591 5591 5591 5591 5591 5590 5590 5590 5590 5590 5591 5592 5593 5595 5596 5596 5596 5595 5594 5593 5591 5590 5589 5588 5588 5587 5586
5581 5582 5583 5584 5584 5585 5585 5585 5584 5584 5583 5582 5581 5581 5581 5581 5581 5580 5580 5580 5580 5580 5579 5579 5579 5579 5579 5580 5583 5585 5585 5585 5584 5584 5582 5581 5580 5578 5577 5576 5575 5574 5574
5572 5573 5574 5575 5576 5576 5577 5577 5575 5574 5573 5572 5571 5570 5571 5570 5570 5569 5569 5569 5569 5568 5568 5567 5567 5567 5567 5567 5569 5571 5573 5573 5573 5572 5569 5568 5567 5565 5564 5563 5562 5561 5560
5562 5563 5565 5566 5567 5567 5567 5567 5566 5565 5564 5562 5561 5560 5559 5559 5559 5558 5557 5557 5556 5556 5555 5554 5554 5553 5553 5552 5552 5554 5556 5558 5559 5558 5556 5554 5552 5550 5549 5548 5547 5546 5545
5553 5553 5555 5556 5557 5557 5557 5558 5557 5556 5554 5552 5551 5549 5548 5548 5547 5546 5546 5545 5544 5543 5542 5541 5540 5539 5538 5537 5536 5534 5535 5537 5539 5543 5541 5539 5536 5534 5533 5532 5531 5529 5528
5543 5545 5546 5546 5547 5547 5548 5548 5546 5546 5544 5542 5540 5538 5537 5535 5535 5534 5533 5532 5531 5530 5528 5527 5525 5524 5523 5522 5521 5519 5516 5516 5516 5521 5524 5523 5520 5519 5517 5516 5515 5514 5512
5534 5535 5536 5537 5538 5538 5537 5537 5536 5535 5534 5532 5530 5528 5526 5524 5522 5521 5520 5519 5518 5516 5514 5512 5510 5509 5508 5506 5504 5503 5502 5500 5499 5498 5502 5503 5503 5501 5500 5499 5498 5497 5496
5525 5525 5527 5528 5527 5527 5527 5526 5525 5524 5523 5521 5519 5516 5514 5511 5510 5508 5507 5505 5503 5501 5500 5498 5496 5494 5492 5490 5488 5486 5484 5483 5482 5480 5481 5483 5483 5484 5484 5483 5481 5479 5477